EW0924 Weather Reports


Display with metric or nautical units.
time (UTC)temp
F
wind
direction
speed
MPH
gust
MPH
rain 1hr
in
rain 24hr
in
rain mn
in
humidity
%
barometer
mb
20260504201804 63 242 2.0 6.0 0.00 0.02 0.02 59 1005.1
20260504200925 63 244 2.0 6.0 0.00 0.02 0.02 59 1005.1
20260504200004 63 237 3.0 8.0 0.00 0.02 0.02 59 1005.1
20260504195404 62 219 4.0 9.0 0.00 0.02 0.02 59 1005.1
20260504194525 62 236 4.0 9.0 0.00 0.02 0.02 60 1005.1
20260504193604 62 219 3.0 7.0 0.00 0.02 0.02 61 1005.1
20260504192704 61 233 3.0 9.0 0.00 0.02 0.02 63 1005.1
20260504191805 60 253 3.0 8.0 0.00 0.02 0.02 65 1005.1
20260504190904 59 243 3.0 7.0 0.00 0.02 0.02 65 1005.1
20260504190004 58 239 2.0 7.0 0.00 0.02 0.02 67 1005.1
20260504185404 58 239 1.0 4.0 0.00 0.02 0.02 70 1005.1
20260504184504 57 236 2.0 6.0 0.00 0.02 0.02 75 1005.1
20260504183604 56 231 2.0 6.0 0.00 0.02 0.02 76 1005.1
20260504182704 55 274 1.0 4.0 0.00 0.02 0.02 80 1005.1
20260504181805 54 333 1.0 4.0 0.00 0.02 0.02 81 1005.1
20260504180904 54 313 1.0 4.0 0.00 0.02 0.02 81 1005.1
20260504180004 53 305 2.0 5.0 0.01 0.02 0.02 83 1005.1
20260504175404 53 307 2.0 4.0 0.02 0.02 0.02 85 1005.1
20260504174525 52 285 2.0 4.0 0.02 0.02 0.02 86 1005.1
20260504173604 52 277 2.0 4.0 0.02 0.02 0.02 89 1005.1
20260504172725 51 281 2.0 5.0 0.02 0.02 0.02 90 1005.1
20260504171803 51 283 2.0 7.0 0.02 0.02 0.02 90 1005.1
20260504170904 53 293 4.0 10.0 0.02 0.02 0.02 86 1005.1
20260504150904 56 182 5.0 12.0 0.00 0.00 0.00 66 1005.1
20260504140905 52 189 6.0 11.0 0.00 0.00 0.00 70 1005.1
20260504081805 38 206 0.0 2.0 0.00 0.00 0.00 74 1005.1
20260504080926 38 171 1.0 2.0 0.00 0.00 0.00 73 1005.1
20260504050025 39 192 1.0 3.0 0.00 0.00 0.00 74 1005.1
20260504045405 39 190 1.0 3.0 0.00 0.00 0.00 75 1005.1
20260504044504 39 228 1.0 3.0 0.00 0.00 0.00 74 1005.1
20260504043603 39 230 2.0 3.0 0.00 0.00 0.00 74 1005.1
20260504042705 39 226 2.0 4.0 0.00 0.00 0.00 74 1005.1
20260504041803 39 211 2.0 5.0 0.00 0.00 0.00 74 1005.1
20260504040924 39 212 2.0 6.0 0.00 0.00 0.00 74 1005.1
20260504040004 39 193 3.0 5.0 0.00 0.00 0.00 74 1005.1
20260504035403 38 186 2.0 5.0 0.00 0.00 0.00 76 1005.1
20260504034505 37 233 1.0 4.0 0.00 0.00 0.00 81 1005.1
20260504033603 38 235 3.0 5.0 0.00 0.00 0.00 79 1005.1
20260504032703 38 220 2.0 4.0 0.00 0.00 0.00 79 1005.1
20260504031805 38 180 1.0 3.0 0.00 0.00 0.00 77 1005.1
20260504030904 37 205 0.0 3.0 0.00 0.00 0.00 79 1005.1
20260504030004 38 231 1.0 4.0 0.00 0.00 0.00 80 1005.1
20260504025425 38 232 1.0 4.0 0.00 0.00 0.00 79 1005.1
20260504024504 38 195 1.0 3.0 0.00 0.00 0.00 77 1005.1
20260504023603 38 194 1.0 3.0 0.00 0.00 0.00 78 1005.1
20260504022703 38 201 0.0 3.0 0.00 0.00 0.00 76 1005.1
20260504021824 39 216 1.0 2.0 0.00 0.00 0.00 75 1005.1
20260504020903 40 203 1.0 3.0 0.00 0.00 0.00 74 1005.1
20260504020026 40 194 2.0 3.0 0.00 0.00 0.00 72 1005.1
20260504015403 40 194 2.0 3.0 0.00 0.00 0.00 71 1005.1
20260504014503 40 205 1.0 3.0 0.00 0.00 0.00 73 1005.1
20260504013624 41 225 1.0 3.0 0.00 0.00 0.00 71 1005.1
20260504012703 41 217 1.0 3.0 0.00 0.02 0.00 70 1005.1
20260504011803 42 238 2.0 3.0 0.00 0.02 0.00 68 1005.1
20260504010924 42 248 1.0 3.0 0.00 0.02 0.00 67 1005.1
20260504010005 43 240 2.0 4.0 0.00 0.02 0.00 66 1005.1
20260504005404 44 243 2.0 4.0 0.00 0.02 0.00 65 1005.1
20260504004503 44 241 2.0 5.0 0.00 0.02 0.00 63 1005.1
20260504003605 45 256 2.0 6.0 0.00 0.02 0.00 63 1005.1
20260504002703 45 268 3.0 9.0 0.00 0.02 0.00 61 1005.1
20260504001804 46 291 3.0 9.0 0.00 0.02 0.00 60 1005.1
20260504000903 46 276 3.0 8.0 0.00 0.02 0.00 59 1005.1
20260504000004 46 277 4.0 9.0 0.00 0.02 0.00 59 1005.1
20260503235405 46 273 4.0 12.0 0.00 0.02 0.00 59 1005.1
20260503234505 47 266 3.0 8.0 0.00 0.02 0.00 57 1005.1
20260503233603 47 291 3.0 7.0 0.00 0.02 0.00 58 1005.1
20260503232703 48 281 3.0 9.0 0.00 0.02 0.00 57 1005.1
20260503231824 48 293 4.0 9.0 0.00 0.02 0.00 56 1005.1
20260503230903 48 294 4.0 9.0 0.00 0.02 0.00 55 1005.1
20260503230026 48 300 5.0 11.0 0.00 0.02 0.00 55 1005.1
20260503225403 48 308 5.0 10.0 0.00 0.02 0.00 54 1005.1
20260503224503 48 317 5.0 13.0 0.00 0.02 0.00 54 1005.1
20260503223603 49 303 5.0 10.0 0.00 0.02 0.00 53 1005.1
20260503222703 49 296 4.0 12.0 0.00 0.02 0.00 54 1005.1
20260503221803 48 300 5.0 10.0 0.00 0.02 0.00 54 1005.1
20260503220903 49 297 4.0 9.0 0.00 0.02 0.00 54 1005.1
20260503220025 49 288 4.0 9.0 0.00 0.02 0.00 55 1005.1
20260503215403 49 288 5.0 13.0 0.00 0.02 0.00 53 1005.1
20260503214503 50 299 4.0 9.0 0.00 0.03 0.00 54 1005.1
20260503213624 50 264 4.0 8.0 0.00 0.03 0.00 54 1005.1
20260503212703 50 262 3.0 8.0 0.00 0.03 0.00 55 1005.1
20260503211803 50 284 5.0 10.0 0.00 0.03 0.00 54 1005.1
20260503210903 50 298 4.0 10.0 0.00 0.04 0.00 54 1005.1
20260503210004 50 304 5.0 13.0 0.00 0.04 0.00 53 1005.1
20260503205403 50 308 4.0 10.0 0.00 0.04 0.00 54 1005.1
20260503204503 50 280 4.0 9.0 0.00 0.05 0.00 55 1005.1
20260503203603 51 297 4.0 7.0 0.00 0.06 0.00 56 1005.1
20260503202705 51 291 4.0 9.0 0.00 0.06 0.00 56 1005.1